Regional Weather Roundup
Issued by NWS Nashville, TN

Home | Current Version | Previous Version | Text Only | Print | Product List | Glossary On
Versions: 1 2 3 4 5 6 7 8 9 10 11 12 13 14 15 16 17 18 19 20 21 22 23 24 25 26 27 28
000
ASUS44 KOHX 220310
RWROHX
MIDDLE TENNESSEE HOURLY WEATHER ROUNDUP
NATIONAL WEATHER SERVICE NASHVILLE TN
900 PM CST TUE FEB 21 2017

NOTE: "FAIR" INDICATES FEW OR NO CLOUDS BELOW 12,000 FEET WITH
NO SIGNIFICANT WEATHER AND/OR OBSTRUCTIONS TO VISIBILITY.

* THESE REPORTS ARE NOT UNDER NWS QUALITY CONTROL AND MAY NOT
  REPORT WEATHER SUCH AS PRECIPITATION AND FOG.


TNZ005>011-023>034-057-059-062>066-078-080-220400
...NORTHERN MIDDLE TENNESSEE...

CITY           SKY/WX    TMP DP  RH WIND       PRES   REMARKS
CLARKSVILLE    LGT RAIN  59  55  87 CALM      29.94R
CROSSVILLE     CLOUDY    53  52  96 CALM      30.00F
GALLATIN       CLOUDY    59  55  88 E3        29.98S
DICKSON        CLOUDY    57  56  97 CALM      29.94R
LIVINGSTON     MOCLDY    57  52  84 CALM      29.98F
NASHVILLE      CLOUDY    58  56  93 E3        29.96R
PORTLAND       CLOUDY    57  55  94 SE8       29.95F
SMYRNA         CLOUDY    58  56  93 E3        29.96S
SPARTA         CLOUDY    57  54  88 SE3       29.96F
SPRINGFIELD    MOCLDY    59  57  94 SE7       29.94R
WEST NASHVILLE CLOUDY    57  57 100 CALM      29.95S
$$
TNZ056-058-060-061-075>077-079-093>097-220400
...SOUTHERN MIDDLE TENNESSEE...

CITY           SKY/WX    TMP DP  RH WIND       PRES   REMARKS
COLUMBIA       PTCLDY   N/A N/A N/A NE5       29.91F
FAYETTEVILLE   CLOUDY    57  55  94 E6        29.93S
LEWISBURG        N/A     55  55 100 NE3         N/A
MCMINNVILLE    MOCLDY    61  55  82 SE5       29.96F
MURFREESBORO   CLOUDY    58  57  96 CALM      29.95S
SHELBYVILLE    CLOUDY    57  57 100 E6        29.94F
TULLAHOMA      MOCLDY    57  54  88 SE8       29.95F
WINCHESTER     MOCLDY    57  54  88 SE9       29.95S
$$


...KEY TO REMARKS...
VSB - VISIBILITY IN MILES
WCI - WIND CHILL INDEX
HX  - HEAT INDEX





USA.gov is the U.S. government's official web portal to all federal, state and local government web resources and services.